Content
SEND FEEDBACK

Daily
Averages
Monthly
Summary
United States of America

CODY - STONEBRIDGE RESERVOIR, WYOMING


Home > North America > United States > Wyoming
Elevation: 5793 feet     Latitude: 44 28N     Longitude: 109 26W

WEATHER
 
SELECT A DAY
Number of Records: 444,702;   Date Range: 1/1/95 - 7/7/14
 
SHARE

PRINT THIS DATA

[ ← Previous Day ]
WEATHER ALMANAC - JANUARY 31, 2013
[ Next Day → ]
[ °C ]   °F
Weather ElementAverageHighLow
Temperature24.3 °F39.2 °F (10:35 pm)14 °F (2:55 am)
Dewpoint19.5 °F26.6 °F (10:15 pm)8.6 °F (10:55 pm)
Humidity84.1 %100 % (12:35 am)49 % (10:35 pm)
Barometer30.01 in30.08 in (10:35 am)29.91 in (1:35 am)
Wind Speed6.9 mph25.3 mph (8:55 pm)
Wind Gust35.7 mph (8:55 pm)
Weather ElementAverage
Visibility9.9 mi
Wind DirectionESE (120.5 °)

Weather ElementTotal
Precipitation---
Heating Degree Days38.4 (Base 65)
Averaged from 63 records on January 31, 2013
WEATHER CONDITIONS BREAKOUT
WIND DIRECTION BREAKOUT
WEATHER BY HOUR - JANUARY 31, 2013
[ °C ]   °F
Local TimeTemperatureDewpointHumidityBarometerVisibilityWind DirectionWind SpeedGust SpeedPrecipitationEventsConditions
12:35 AM19.4 °F19.4 °F100 %29.92 in10.0 miCalmOvercast
12:55 AM19.4 °F17.6 °F93 %29.92 in10.0 miSouth (190°)4.6 mphOvercast
1:15 AM19.4 °F17.6 °F93 %29.92 in10.0 miSSE (160°)4.6 mphOvercast
1:35 AM19.4 °F17.6 °F93 %29.91 in10.0 miSSE (160°)4.6 mphScattered Clouds
2:15 AM17.6 °F17.6 °F100 %29.92 in10.0 miSSE (160°)3.5 mphScattered Clouds
2:35 AM15.8 °F14.0 °F93 %29.92 in10.0 miENE (60°)3.5 mphScattered Clouds
2:55 AM14.0 °F12.2 °F93 %29.93 in10.0 miNNE (30°)8.1 mphPartly Cloudy
3:15 AM17.6 °F15.8 °F93 %29.94 in10.0 miNNE (30°)5.8 mphMostly Cloudy
3:35 AM17.6 °F17.6 °F100 %29.94 in10.0 miCalmOvercast
3:55 AM17.6 °F17.6 °F100 %29.94 in10.0 miCalmOvercast
4:35 AM15.8 °F14.0 °F93 %29.97 in10.0 miNE (40°)8.1 mphOvercast
4:55 AM17.6 °F17.6 °F100 %29.98 in10.0 miNorth (360°)8.1 mphOvercast
5:15 AM19.4 °F19.4 °F100 %29.99 in7.0 miNorth (10°)11.5 mphOvercast
5:35 AM21.2 °F19.4 °F93 %30.00 in10.0 miNorth (360°)9.2 mphOvercast
5:55 AM19.4 °F17.6 °F93 %30.01 in10.0 miNorth (360°)6.9 mphOvercast
6:15 AM19.4 °F19.4 °F100 %30.01 in10.0 miCalmOvercast
6:35 AM19.4 °F19.4 °F100 %30.01 in10.0 miCalmOvercast
6:55 AM19.4 °F19.4 °F100 %30.02 in10.0 miESE (110°)3.5 mphOvercast
7:15 AM19.4 °F17.6 °F93 %30.02 in10.0 miCalmOvercast
7:35 AM19.4 °F17.6 °F93 %30.02 in10.0 miSSE (150°)5.8 mphOvercast
7:55 AM19.4 °F19.4 °F100 %30.04 in10.0 miSE (130°)4.6 mphOvercast
8:15 AM19.4 °F17.6 °F93 %30.05 in10.0 miSE (140°)6.9 mphOvercast
8:35 AM17.6 °F17.6 °F100 %30.06 in10.0 miCalmMostly Cloudy
9:55 AM19.4 °F17.6 °F93 %30.07 in10.0 miCalmOvercast
10:15 AM21.2 °F19.4 °F93 %30.07 in10.0 miNorth (360°)3.5 mphOvercast
10:35 AM21.2 °F21.2 °F100 %30.08 in10.0 miNNE (20°)4.6 mphOvercast
10:55 AM21.2 °F19.4 °F93 %30.07 in10.0 miNNE (30°)3.5 mphOvercast
11:15 AM23.0 °F21.2 °F93 %30.07 in10.0 miCalmOvercast
11:35 AM24.8 °F21.2 °F86 %30.07 in10.0 miCalmOvercast
11:55 AM26.6 °F21.2 °F80 %30.06 in10.0 miCalmMostly Cloudy
12:15 PM26.6 °F21.2 °F80 %30.06 in10.0 miCalmMostly Cloudy
12:35 PM26.6 °F21.2 °F80 %30.05 in10.0 miCalmOvercast
12:55 PM26.6 °F21.2 °F80 %30.04 in10.0 miCalmMostly Cloudy
1:15 PM26.6 °F21.2 °F80 %30.03 in10.0 miNE (50°)3.5 mphMostly Cloudy
1:35 PM28.4 °F23.0 °F80 %30.03 in10.0 miNNE (20°)4.6 mphScattered Clouds
1:55 PM28.4 °F21.2 °F74 %30.03 in10.0 miNNE (30°)6.9 mphPartly Cloudy
2:15 PM28.4 °F21.2 °F74 %30.02 in10.0 miNNE (30°)8.1 mphClear
2:35 PM28.4 °F21.2 °F74 %30.02 in10.0 miNE (40°)10.4 mphPartly Cloudy
2:55 PM28.4 °F21.2 °F74 %30.02 in10.0 miNE (40°)12.7 mphMostly Cloudy
3:15 PM28.4 °F21.2 °F74 %30.02 in10.0 miENE (60°)10.4 mphMostly Cloudy
3:35 PM26.6 °F23.0 °F86 %30.02 in10.0 miNorth (10°)6.9 mphOvercast
3:55 PM26.6 °F23.0 °F86 %30.02 in10.0 miNNE (20°)8.1 mphMostly Cloudy
4:15 PM24.8 °F23.0 °F93 %30.02 in10.0 miNNE (30°)10.4 mphOvercast
4:35 PM24.8 °F23.0 °F93 %30.02 in10.0 miNorth (10°)8.1 mphOvercast
4:55 PM24.8 °F21.2 °F86 %30.02 in10.0 miNE (40°)10.4 mphOvercast
5:15 PM21.2 °F21.2 °F100 %30.02 in10.0 miNNE (30°)8.1 mphMostly Cloudy
5:35 PM21.2 °F21.2 °F100 %30.02 in10.0 miNNE (30°)5.8 mphOvercast
6:15 PM35.6 °F23.0 °F60 %30.01 in10.0 miNW (310°)8.1 mphMostly Cloudy
6:35 PM35.6 °F21.2 °F56 %30.01 in10.0 miWNW (290°)9.2 mph17.3 mphPartly Cloudy
7:15 PM23.0 °F21.2 °F93 %30.01 in8.0 miNNW (340°)4.6 mphPartly Cloudy
7:35 PM21.2 °F19.4 °F93 %30.01 in10.0 miNNW (340°)8.1 mphClear
7:55 PM30.2 °F23.0 °F75 %30.01 in10.0 miWest (260°)13.8 mph20.7 mphClear
8:15 PM37.4 °F21.2 °F52 %30.01 in10.0 miWest (270°)21.9 mph31.1 mphScattered Clouds
8:35 PM37.4 °F21.2 °F52 %30.00 in10.0 miWSW (250°)24.2 mph33.4 mphScattered Clouds
8:55 PM37.4 °F21.2 °F52 %30.00 in10.0 miWest (260°)25.3 mph35.7 mphClear
9:15 PM37.4 °F21.2 °F52 %30.00 in10.0 miWSW (250°)16.1 mph24.2 mphClear
9:35 PM35.6 °F21.2 °F56 %30.00 in10.0 miWest (260°)16.1 mph24.2 mphClear
9:55 PM26.6 °F15.8 °F64 %29.99 in10.0 miWest (280°)17.3 mph25.3 mphPartly Cloudy
10:15 PM37.4 °F26.6 °F65 %29.99 in10.0 miWSW (240°)16.1 mph28.8 mphMostly Cloudy
10:35 PM39.2 °F21.2 °F49 %29.99 in10.0 miWSW (240°)11.5 mph20.7 mphPartly Cloudy
10:55 PM19.4 °F8.6 °F63 %29.99 in9.0 miNNE (30°)6.9 mphClear
11:15 PM17.6 °F14.0 °F86 %29.99 in9.0 miNorth (360°)5.8 mphClear
11:55 PM28.4 °F17.6 °F64 %30.00 in10.0 miNW (310°)6.9 mphClear
Hourly data recorded from KCOD, located miles away from Cody - Stonebridge Reservoir, Wyoming







STORIES FROM OUR PARTNERS